Location: Unspecified
(64.9000°N, 0.0000°E)
Time: 20:50:40
(UTC+00:00)

A-11 Canister half - All Passes

Search period start: 17 June 2019 00:00
Search period end: 27 June 2019 00:00
Orbit: 1516 x 1684 km, 47.2° (Epoch: 16 June)

Date Brightness Start Highest point End Pass type
(mag) Time Alt. Az. Time Alt. Az. Time Alt. Az.
17 Jun - 11:28:55 10° S 11:33:38 15° SE 11:38:16 10° ESE daylight
17 Jun - 13:28:30 10° SSW 13:35:43 24° SSE 13:42:47 10° ESE daylight
17 Jun - 15:30:52 10° WSW 15:38:13 26° S 15:45:25 10° SE daylight
17 Jun - 17:34:52 10° WSW 17:40:25 17° SW 17:45:54 10° S daylight
18 Jun - 11:06:25 10° SSE 11:10:53 14° SE 11:15:17 10° ESE daylight
18 Jun - 13:05:45 10° SSW 13:12:56 24° SSE 13:19:58 10° ESE daylight
18 Jun - 15:08:02 10° WSW 15:15:26 26° S 15:22:40 10° SE daylight
18 Jun - 17:11:54 10° WSW 17:17:40 18° SSW 17:23:21 10° S daylight
19 Jun - 10:43:58 10° SSE 10:48:08 14° SE 10:52:15 10° ESE daylight
19 Jun - 12:43:00 10° SSW 12:50:09 24° SSE 12:57:09 10° ESE daylight
19 Jun - 14:45:11 10° WSW 14:52:38 26° S 14:59:55 10° SE daylight
19 Jun - 16:48:58 10° WSW 16:54:55 19° SSW 17:00:46 10° S daylight
20 Jun - 10:21:33 10° SSE 10:25:23 13° SE 10:29:10 10° ESE daylight
20 Jun - 12:20:15 10° SSW 12:27:21 24° SSE 12:34:19 10° ESE daylight
20 Jun - 14:22:21 10° WSW 14:29:51 26° S 14:37:11 10° SE daylight
20 Jun - 16:26:02 10° WSW 16:32:09 19° SSW 16:38:10 10° S daylight
21 Jun - 09:59:12 10° SSE 10:02:39 12° SE 10:06:03 10° ESE daylight
21 Jun - 11:57:31 10° SSW 12:04:34 23° SSE 12:11:28 10° ESE daylight
21 Jun - 13:59:30 10° SW 14:07:04 27° S 14:14:26 10° SE daylight
21 Jun - 16:03:06 10° WSW 16:09:23 20° SSW 16:15:34 10° SSE daylight
22 Jun - 09:36:56 10° SSE 09:39:54 12° SE 09:42:52 10° ESE daylight
22 Jun - 11:34:47 10° SSW 11:41:48 23° SSE 11:48:39 10° ESE daylight
22 Jun - 13:36:40 10° SW 13:44:16 27° S 13:51:40 10° SE daylight
22 Jun - 15:40:11 10° WSW 15:46:37 21° SSW 15:52:57 10° SSE daylight
23 Jun - 09:14:47 10° SSE 09:17:10 11° SE 09:19:33 10° ESE daylight
23 Jun - 11:12:04 10° SSW 11:19:00 22° SSE 11:25:48 10° ESE daylight
23 Jun - 13:13:50 10° SW 13:21:28 27° S 13:28:54 10° SE daylight
23 Jun - 15:17:16 10° WSW 15:23:52 21° SSW 15:30:19 10° SSE daylight
24 Jun - 08:52:52 10° SE 08:54:26 10° SE 08:55:59 10° ESE daylight
24 Jun - 10:49:21 10° SSW 10:56:13 22° SSE 11:02:57 10° ESE daylight
24 Jun - 12:51:01 10° SW 12:58:40 27° S 13:06:08 10° SE daylight
24 Jun - 14:54:21 10° WSW 15:01:05 22° SSW 15:07:41 10° SSE daylight
24 Jun - 17:01:42 10° SW 17:02:47 10° SW 17:03:52 10° SW daylight
25 Jun - 10:26:39 10° SSW 10:33:26 21° SSE 10:40:05 10° ESE daylight
25 Jun - 12:28:11 10° SW 12:35:53 27° S 12:43:21 10° SE daylight
25 Jun - 14:31:27 10° WSW 14:38:18 22° SSW 14:45:02 10° SSE daylight
25 Jun - 16:37:52 10° WSW 16:40:04 11° SW 16:42:16 10° SW daylight
26 Jun - 10:03:58 10° SSW 10:10:39 21° SSE 10:17:13 10° ESE daylight
26 Jun - 12:05:22 10° SW 12:13:04 27° S 12:20:35 10° SE daylight
26 Jun - 14:08:34 10° WSW 14:15:32 23° SSW 14:22:22 10° SSE daylight
26 Jun - 16:14:27 10° WSW 16:17:21 12° SW 16:20:13 10° SSW daylight
